Forside
METAR-TAF:

METAR-TAF

Lufthavne :

Platteville, Wisconsin, USA

Breddekreds: 42-41-22N, længdekreds: 090-26-40W, højde: 312 m

Aktuelle vejr

Denne rapport blev lavet for 27 minutter siden, kl. 12:15 UTC
Vind 8 kt fra østsydøst
Temperatur 1°C
Fugtighed 100%
Tryk 1020 hPa
Sigt: 2.4 km
Overskyet i en højde af 300 ft

METAR: KPVB 241215Z AUTO 12008KT 1 1/2SM OVC003 01/01 A3013 RMK AO1 P0001 T00050005

Tid: 06:42 (12:42 UTC)


TAF: fraværende

Vejrobservationer og prognoser fra mere end 4000 lufthavne (METAR og TAF).

De gule og røde prikker repræsenterer de meteorologiske stationer.

Flyt musen over at se navnet på stationen.

Så klik over at se vejr observationer og prognoser.

At skifte det kort: Klik på de grønne knapper med et sort kors for at zoome ind; på den grønne knap med en bindestreg for at zoome ud; eller på de grønne pile for tilstødende kort.


METAR-TAF: